Location: Unspecified
(0.0000°N, 0.0000°E)
Time: 09:57:59
(UTC+00:00)

CZ-3C DEB - Pass Details

Date: 10 March 2026
Orbit: 509 x 34331 km, 19.9° (Epoch: 18 April)

Event Time Altitude Azimuth Distance (km) Brightness Sun altitude
Rises 20:37:03 0° 262° (W) 7,096 ? -36.5°
Reaches altitude 10° 20:40:05 10° 258° (WSW) 7,007 ? -37.3°
Maximum altitude 00:56:47 70° 196° (SSW) 34,460 ? -77.7°
Drops below altitude 10° 06:12:20 10° 59° (ENE) 5,400 ? 0.5°
Sets 06:14:31 0° 62° (ENE) 5,726 ? 1.0°
